Weather History for Newark Heath, OH

Change the Weather History Date:

Monday, December 31, 2012

  Actual Average Record
Temperature  
Mean Temperature 24 °F -  
Max Temperature 34 °F 37 °F 66 °F (1951)
Min Temperature 14 °F 22 °F -6 °F (1976)
Degree Days  
Heating Degree Days 41    
Moisture  
Dew Point 25 °F    
Average Humidity 83    
Maximum Humidity 92    
Minimum Humidity 61    
Precipitation  
Precipitation 0.05 in - - ()
Sea Level Pressure  
Sea Level Pressure 30.13 in    
Wind  
Wind Speed 7 mph (SW)    
Max Wind Speed 17 mph    
Max Gust Speed 23 mph    
Visibility 6 miles    
Events Fog , Snow    
Averages and records for this station are not official NWS values.
T = Trace of Precipitation, MM = Missing Value Source: NWS Daily Summary

Daily Weather History Graph

Daily Weather History Graph

Search for Another Location

Airport:

Trip Planner

Search our weather history database for the weather conditions in past years. The results will help you decide how hot, cold, wet, or windy it might be!

Date:

Astronomy

Dec. 31, 2012 Rise Set
Actual Time 7:51 AM EST 5:14 PM EST
Civil Twilight 7:21 AM EST 5:45 PM EST
Nautical Twilight 6:47 AM EST 6:19 PM EST
Astronomical Twilight 6:14 AM EST 6:52 PM EST
Moon 8:44 PM EST (12/31) 9:32 AM EST (12/31)
Length of Visible Light 10h 23m
Length of Day
9h 22m
Waning Gibbous, 90% of the Moon is Illuminated
Dec 31
Waning Gibbous
Jan 4
Last Quarter
Jan 11
New
Jan 18
First Quarter
Jan 26
Full

Hourly Weather History & Observations

Time (EST) Temp. Windchill Dew Point Humidity Pressure Visibility Wind Dir Wind Speed Gust Speed Precip Events Conditions
12:54 AM 16.0 °F 10.4 °F 12.0 °F 84% 30.35 in 4.0 mi SSW 3.5 mph - N/A   Clear
1:54 AM 18.0 °F - 15.1 °F 88% 30.30 in 6.0 mi Calm Calm - N/A   Clear
2:54 AM 14.0 °F - 10.9 °F 88% 30.30 in 5.0 mi Calm Calm - N/A   Clear
3:54 AM 15.1 °F - 12.9 °F 91% 30.29 in 4.0 mi Calm Calm - N/A   Clear
4:54 AM 16.0 °F - 12.9 °F 88% 30.27 in 6.0 mi Calm Calm - N/A   Clear
5:54 AM 19.0 °F - 15.1 °F 85% 30.26 in 8.0 mi Calm Calm - N/A   Clear
6:54 AM 23.0 °F 15.8 °F 19.0 °F 85% 30.25 in 10.0 mi SSW 5.8 mph - N/A   Clear
7:54 AM 25.0 °F 18.1 °F 19.9 °F 81% 30.23 in 10.0 mi SSW 5.8 mph - N/A   Clear
8:54 AM 27.0 °F 18.0 °F 21.0 °F 78% 30.21 in 10.0 mi SSW 9.2 mph - N/A   Clear
9:54 AM 28.9 °F 20.4 °F 21.9 °F 75% 30.20 in 10.0 mi SSW 9.2 mph - N/A   Clear
10:54 AM 33.1 °F 24.4 °F 21.9 °F 64% 30.19 in 10.0 mi SSW 11.5 mph - N/A   Overcast
11:54 AM 34.0 °F 25.5 °F 21.9 °F 61% 30.18 in 10.0 mi SW 11.5 mph - N/A   Overcast
12:54 PM 34.0 °F 24.2 °F 23.0 °F 64% 30.14 in 10.0 mi SW 15.0 mph - N/A   Overcast
1:49 PM 33.8 °F 23.2 °F 26.6 °F 75% 30.09 in 1.5 mi SW 17.3 mph 23.0 mph 0.00 in Snow Light Snow
1:54 PM 32.0 °F 22.5 °F 27.0 °F 82% 30.12 in 0.8 mi SW 12.7 mph 23.0 mph 0.00 in Snow Light Snow
2:25 PM 32.0 °F 23.6 °F 28.4 °F 87% 30.07 in 0.8 mi SW 10.4 mph - 0.00 in Snow Light Snow
2:39 PM 32.0 °F 25.6 °F 28.4 °F 87% 30.05 in 1.0 mi SSW 6.9 mph - 0.00 in Snow Light Snow
2:54 PM 32.0 °F 24.8 °F 28.9 °F 88% 30.10 in 0.8 mi SW 8.1 mph - 0.01 in Snow Light Snow
3:09 PM 32.0 °F 24.8 °F 28.4 °F 87% 30.06 in 0.5 mi SW 8.1 mph - 0.01 in Fog , Snow Snow
3:36 PM 32.0 °F 23.6 °F 28.4 °F 87% 30.07 in 0.5 mi SSW 10.4 mph - 0.01 in Fog , Snow Snow
3:49 PM 32.0 °F 22.5 °F 28.4 °F 87% 30.09 in 0.2 mi SW 12.7 mph - 0.02 in Fog , Snow Snow
3:54 PM 32.0 °F 22.5 °F 28.9 °F 88% 30.12 in 0.2 mi SW 12.7 mph - 0.02 in Fog , Snow Snow
4:34 PM 32.0 °F 23.0 °F 28.4 °F 87% 30.09 in 0.5 mi SW 11.5 mph - 0.01 in Fog , Snow Light Snow
4:44 PM 32.0 °F 24.2 °F 28.4 °F 87% 30.09 in 0.5 mi SSW 9.2 mph - 0.02 in Fog , Snow Light Snow
4:54 PM 32.0 °F 23.6 °F 30.0 °F 92% 30.12 in 0.5 mi SSW 10.4 mph - 0.02 in Fog , Snow Light Snow
5:23 PM 32.0 °F 23.6 °F 28.4 °F 87% 30.07 in 1.8 mi SW 10.4 mph - 0.00 in Snow Light Snow
5:30 PM 32.0 °F 23.6 °F 28.4 °F 87% 30.08 in 2.5 mi SW 10.4 mph - 0.00 in Snow Light Snow
5:34 PM 32.0 °F 22.5 °F 28.4 °F 87% 30.07 in 3.0 mi SW 12.7 mph - 0.00 in Snow Light Snow
5:42 PM 32.0 °F 22.5 °F 28.4 °F 87% 30.08 in 5.0 mi SW 12.7 mph - 0.00 in   Overcast
5:48 PM 33.8 °F 25.3 °F 28.4 °F 81% 30.07 in 8.0 mi SW 11.5 mph - 0.00 in   Overcast
5:54 PM 33.1 °F 25.5 °F 28.9 °F 85% 30.11 in 10.0 mi SW 9.2 mph - 0.00 in   Overcast
7:54 PM 33.1 °F 26.1 °F 28.0 °F 82% 30.09 in 10.0 mi SSW 8.1 mph - N/A   Overcast
8:54 PM 33.1 °F 24.4 °F 28.9 °F 85% 30.08 in 5.0 mi SW 11.5 mph - 0.00 in   Overcast
9:01 PM 33.8 °F 25.8 °F 28.4 °F 81% 30.06 in 4.0 mi SW 10.4 mph - N/A   Overcast
9:18 PM 33.8 °F 27.0 °F 28.4 °F 81% 30.05 in 5.0 mi SW 8.1 mph - N/A   Overcast
9:27 PM 33.8 °F 26.4 °F 28.4 °F 81% 30.04 in 5.0 mi SSW 9.2 mph - N/A   Overcast
9:51 PM 33.8 °F 27.0 °F 28.4 °F 81% 30.04 in 8.0 mi SW 8.1 mph - N/A   Overcast
9:54 PM 33.1 °F 24.9 °F 28.9 °F 85% 30.06 in 7.0 mi SSW 10.4 mph - N/A   Overcast
10:16 PM 33.8 °F 26.4 °F 28.4 °F 81% 30.03 in 10.0 mi SW 9.2 mph - N/A   Overcast
10:42 PM 33.8 °F 25.8 °F 28.4 °F 81% 30.04 in 10.0 mi SW 10.4 mph - N/A   Overcast
10:54 PM 34.0 °F 26.6 °F 28.9 °F 82% 30.07 in 10.0 mi WSW 9.2 mph - N/A   Overcast
11:47 PM 33.8 °F 25.3 °F 30.2 °F 87% 30.04 in 10.0 mi WSW 11.5 mph - N/A   Overcast
11:54 PM 34.0 °F 25.5 °F 30.0 °F 85% 30.06 in 10.0 mi WSW 11.5 mph - N/A   Overcast